Regional Weather Roundup
Issued by NWS

Home | Current Version | Previous Version | Graphics & Text | Print | Product List | Glossary On
Versions: 1 2 3 4 5 6 7 8 9 10 11 12 13 14 15 16 17 18 19 20 21 22 23 24 25 26 27 28 29 30 31 32 33 34 35 36 37 38 39 40 41 42 43 44 45 46 47 48 49 50
936
ASUS43 KMPX 060610
RWRMN
WEATHER ROUNDUP FOR MINNESOTA
NATIONAL WEATHER SERVICE TWIN CITIES/CHANHASSEN MN
1200 AM CST SAT FEB 06 2016


NOTE: "FAIR" INDICATES FEW OR NO CLOUDS BELOW 12,000 FEET WITH NO
SIGNIFICANT WEATHER AND/OR OBSTRUCTIONS TO VISIBILITY. N/A MEANS
CURRENT SKY AND/OR WEATHER CONDITIONS ARE NOT AVAILABLE.

MNZ060>063-068>070-060700-
   Twin Cities Metro

CITY           SKY/WX    TMP DP  RH WIND       PRES   REMARKS
TWIN CITIES    CLOUDY    26  21  81 SW6       30.17F WCI  19
6HR MIN TEMP:  25; 6HR MAX TEMP:  26; 6HR PCP: TRACE;

ST PAUL        CLOUDY    26  21  81 SW8       30.18F WCI  18
CRYSTAL        CLOUDY    26  21  81 SW7       30.15F WCI  18
BLAINE         PTCLDY    27  25  93 SW7       30.15S WCI  19
LAKEVILLE      CLOUDY    25  23  93 SW3       30.17S
EDEN PRAIRIE   CLOUDY    26  21  81 SW8       30.15F HAZE    WCI  18
6HR MIN TEMP:  25; 6HR MAX TEMP:  26; 6HR PCP: TRACE;

SOUTH ST PAUL  CLOUDY    27  22  84 SW5       30.17F WCI  21
LAKE ELMO      CLOUDY    27  23  86 SW5       30.16F WCI  21
$$
MNZ001>005-007-008-013>017-022>024-027-028-060700-
   Northwest Minnesota

CITY           SKY/WX    TMP DP  RH WIND       PRES   REMARKS
BEMIDJI        CLOUDY    17  16  94 SW3       30.05F FOG
HALLOCK        CLOUDY    16  12  86 SE8       30.01F WCI   5
ROSEAU         MOCLDY    18  12  79 S5        30.02F WCI  11
WARROAD        CLOUDY    19  16  86 SW5       30.02F WCI  13
THIEF RVR FALL CLOUDY    16  12  86 S6        30.04F WCI   7
CROOKSTON      CLOUDY    19  18  93 S8        30.05F WCI   9
FOSSTON        FOG       12  12 100 S7        30.05F VSB 1   WCI   2
DETROIT LAKES  FOG       23  21  93 S7        30.08F VSB 1/2 WCI  15
MOORHEAD       MOCLDY    14  12  92 S8        30.10F FOG     WCI   3
PARK RAPIDS    CLOUDY    20  17  88 SW7       30.07F WCI  11
MAHNOMEN       FAIR      17  15  93 S5        30.06F WCI  10
$$
MNZ006-009>011-018-025>026-060700-
   North Central Minnesota

CITY           SKY/WX    TMP DP  RH WIND       PRES   REMARKS
BAUDETTE       CLOUDY    20  14  77 SW6       30.02F WCI  12
FLAG ISLAND    CLOUDY    18  14  86 CALM      30.01F
INTL FALLS     CLOUDY    21  15  78 W6        30.03S WCI  13
6HR MIN TEMP:  21; 6HR MAX TEMP:  24;

WASKISH        CLOUDY    18  16  93 SW5       30.04F WCI  11
LONGVILLE      CLOUDY    19  18  93 CALM      30.07F
GRAND RAPIDS   CLOUDY    21  18  86 W3        30.06F
CRANE LAKE     CLOUDY    19  16  86 SW2       30.05S
ORR            CLOUDY    19  16  86 CALM      30.01S
COOK           CLOUDY    21  18  86 W7        30.04R WCI  13
WALKER         CLOUDY    17  15  93 SW5       30.07S WCI  10
$$
MNZ012-019>021-037-060700-
   Northeast Minnesota

CITY           SKY/WX    TMP DP  RH WIND       PRES   REMARKS
DULUTH         MOCLDY    22  14  71 W12       30.04F WCI  10
6HR MIN TEMP:  22; 6HR MAX TEMP:  24;

ELY            CLOUDY    21  18  86 CALM      30.01S
HIBBING        CLOUDY    23  17  78 W6        30.04S WCI  16
EVELETH        CLOUDY    25  18  74 W7        30.04S WCI  17
DULUTH HARBOR  CLOUDY    27  18  69 SW13G18   30.10F WCI  16
TWO HARBORS    CLEAR     23  16  74 SW5       30.03F WCI  17
SILVER BAY     CLOUDY    23  16  74 SW3       30.02F
GRAND MARAIS     N/A     23  15  71 VRB3      30.04F
G MARAIS ARPRT CLOUDY    18  12  79 W6        29.96F WCI   9
$$
MNZ029>031-032-039>041-046>048-054>057-064-060700-
   West Central Minnesota

CITY           SKY/WX    TMP DP  RH WIND       PRES   REMARKS
FERGUS FALLS   FOG       16  12  86 SE3       30.15F VSB 1/2
WHEATON        PTCLDY    21  19  93 S8        30.15S WCI  12
MORRIS         FOG       10   9  92 CALM      30.13S VSB 1/4
ALEXANDRIA     FOG       24  22  91 SW8       30.12S VSB 1/2 WCI  15
ELBOW LAKE     FOG       11  10  92 E3        30.13S VSB 1
WADENA         CLOUDY    19  18  93 W6        30.10S WCI  11
GLENWOOD       CLOUDY    25  23  93 SW7       30.13S WCI  17
APPLETON       CLEAR     18  16  93 CALM      30.16S
BENSON         CLEAR     18  16  93 CALM      30.15S FOG
ORTONVILLE     CLEAR     18  16  93 SW5       30.14S WCI  11
MADISON        CLEAR     16  16 100 SW7       30.16F FOG     WCI   6
WILLMAR        CLOUDY    27  25  93 W6        30.16S WCI  20
$$
MNZ033>034-036-042>043-049>051-058-059-060700-
   Central Minnesota

CITY           SKY/WX    TMP DP  RH WIND       PRES   REMARKS
ST CLOUD       CLOUDY    23  20  88 SW5       30.13F WCI  17
6HR MIN TEMP:  18; 6HR MAX TEMP:  24;

SAUK CENTRE    CLOUDY    24  22  92 W6        30.13S WCI  17
PAYNESVILLE    CLOUDY    25  23  89 W7        30.15S WCI  18
AITKIN         CLOUDY    27  18  69 W5        30.08S WCI  21
PINE RIVER     CLOUDY    21  18  86 SW3       30.12S
BRAINERD       CLOUDY    22  18  85 SW8       30.10F WCI  12
STAPLES        CLOUDY    19  18  93 W8        30.11S WCI   9
LONG PRAIRIE   CLOUDY    21  19  93 SW6       30.13R WCI  14
LITTLE FALLS   CLOUDY    25  19  80 W9        30.13S WCI  15
LITCHFIELD     CLOUDY    27  25  93 W6        30.15F WCI  20
BUFFALO        CLOUDY    23  21  93 CALM      30.16S
MAPLE LAKE     CLOUDY    24  24  96 SW6       30.16S WCI  17
$$
MNZ037-044-045-052-053-060700-
   East Central Minnesota

CITY           SKY/WX    TMP DP  RH WIND       PRES   REMARKS
PRINCETON      CLOUDY    25  21  86 CALM      30.13S
MORA           CLOUDY    25  21  86 W6        30.14S WCI  18
CAMBRIDGE      CLOUDY    27  19  74 CALM      30.12F
RUSH CITY      CLOUDY    25  21  86 SW5       30.14S WCI  19
MOOSE LAKE     CLOUDY    25  18  74 SW5       30.08F WCI  19
HINCKLEY       CLOUDY    27  23  86 W7        30.12S WCI  19
CLOQUET        MOCLDY    23  16  74 SW7       30.06F WCI  15
MCGREGOR       CLOUDY    27  19  74 SW5       30.09S WCI  21
$$
MNZ071>073-080-081-089-090-097-098-060700-
   Southwest Minnesota

CITY           SKY/WX    TMP DP  RH WIND       PRES   REMARKS
MONTEVIDEO     CLEAR     19  16  86 W6        30.18S WCI  11
GRANITE FALLS  CLEAR     20  18  93 SW6       30.18F WCI  12
CANBY          CLEAR     25  24  96 SW13      30.17S WCI  14
MARSHALL       CLEAR     19  18  95 W14       30.17F FOG     WCI   6
REDWOOD FALLS  CLEAR     25  22  88 SW6       30.17F WCI  18
OLIVIA         PTCLDY    25  21  86 SW5       30.16S WCI  19
PIPESTONE        N/A     23  18  80 SW3       30.16F
WINDOM         PTCLDY    21  21 100 SW5       30.17S WCI  15
WORTHINGTON    CLEAR     21  18  86 W9        30.18S WCI  11
JACKSON        CLOUDY    28  25  86 W10       30.18S WCI  19
TRACY          CLEAR     20  18  93 SW10      30.17F WCI   8
SLAYTON        FOG       19  19 100 W10       30.17S VSB 1/2 WCI   8
$$
MNZ065>067-074>077-082>085-091>093-060700-
   South Central Minnesota

CITY           SKY/WX    TMP DP  RH WIND       PRES   REMARKS
MANKATO        CLOUDY    25  21  86 SW6       30.18S WCI  18
NEW ULM        CLOUDY    27  23  86 W7        30.18S WCI  19
ST JAMES       CLOUDY    28  27  93 W8        30.20S WCI  20
FAIRMONT       CLOUDY    28  23  80 W10       30.18F WCI  19
GLENCOE        CLOUDY    23  22  99 SW3       30.16S FOG
FARIBAULT      CLOUDY    27  23  86 S8        30.18S FOG     WCI  18
OWATONNA       MOCLDY    27  23  86 SW10      30.17F WCI  17
WASECA         CLOUDY    27  23  86 S10       30.19F FOG     WCI  17
ALBERT LEA     CLOUDY    25  25 100 SW7       30.19S FOG     WCI  17
$$
MNZ078>079-086>088-094>096-060700-
   Southeast Minnesota

CITY           SKY/WX    TMP DP  RH WIND       PRES   REMARKS
ROCHESTER      CLOUDY    23  21  92 SW16      30.19S FOG     WCI  10
6HR MIN TEMP:  20; 6HR MAX TEMP:  23; 6HR PCP: TRACE;

RED WING       CLOUDY    25  19  80 S6        30.18F WCI  18
STANTON        CLOUDY    27  24  86 SW7       30.16F FOG     WCI  20
DODGE CENTER   CLOUDY    23  21  93 SW10      30.17F FOG     WCI  12
WINONA         CLOUDY    28  21  74 SW3       30.23F
AUSTIN         LGT SNOW  25  23  93 SW7       30.20R WCI  17
PRESTON        CLOUDY    23  21  91 SW10      30.19S WCI  12
$$
ABBREVIATIONS USED IN REMARKS
   TC - TEMPERATURES IN CELSIUS
  WCI - WIND CHILL INDEX
   HX - HEAT INDEX
  VSB - VISIBILITY
$$




USA.gov is the U.S. government's official web portal to all federal, state and local government web resources and services.